SCP
0 0 0 0 0 0 0 0 0 0 0 0 0 0 0 0 0 0 0 0 0 0 0 0 0 0 0 0 0 0 0 0 0 0 0 0 0 0 0 0 0 0 0 0 0 0 0 0 0 0 0 0 0 0
0 0 0 0 0 0 0 0 0 0 0 0 0 0 0 0 0 0 0 0 0 0 0 0 0 0 0 0 0 0 0 0 0 0 0 0 0 0 0 0 0 0 0 0 0 0 0 0 0 0 0 0 0 0
0 0 0 0 0 0 0 0 0 0 0 0 0 0 0 0 0 0 0 0 0 0 0 0 0 0 0 0 0 0 0 0 0 0 0 0 0 0 0 0 0 0 0 0 0 0 0 0 0 0 0 0 0 0
0 0 0 0 0 0 0 0 0 0 0 0 0 0 0 0 0 0 0 0 0 0 0 0 0 0 0 0 0 0 0 0 0 0 0 0 0 0 0 0 0 0 0 0 0 0 0 0 0 0 0 0 0 0
0 0 0 0 0 0 0 0 0 0 0 0 0 0 0 0 0 0 0 0 0 0 0 0 0 0 0 0 0 0 0 0 0 0 0 0 0 0 0 0 0 0 0 0 0 0 0 0 0 0 0 0 0 0
0 0 0 0 0 0 0 0 0 0 0 0 0 0 0 0 0 0 0 0 0 0 0 0 0 0 0 0 0 0 0 0 0 0 0 0 0 0 0 0 0 0 0 0 0 0 0 0 0 0 0 0 0 0
0 0 0 0 0 0 0 0 0 0 0 0 0 0 0 0 0 0 0 0 0 0 0 0 0 0 0 0 0 0 0 0 0 0 0 0 0 0 0 0 0 0 0 0 0 0 0 0 0 0 0 0 0 0
0 0 0 0 0 0 0 0 0 0 0 0 0 0 0 0 0 0 0 0 0 0 0 0 0 0 0 0 0 0 0 0 0 0 0 0 0 0 0 0 0 0 0 0 0 0 0 0 0 0 0 0 0 0
0 0 0 -0 0 0 0 0 0 0 0 0 0 0 0 0 0 0 0 0 0 0 0 0 0 0 0 0 0 0 0 0 0 0 0 0 0 0 0 0 0 0 0 0 0 0 0 0 0 0 0 0 0 0
0 0 0 -0 0 0 0 0 0 0 0 0 0 0 0 0 0 0 0 0 0 0 0 0 0 0 0 0 0 0 0 0 0 0 0 0 0 0 0 0 0 0 0 0 0 0 0 0 0 0 0 0 0 0
-0 -0 0 0 0 0 0 0 0 0 0 0 0 0 0 0 0 0 0 0 0 0 0 0 0 0 0 0 0 0 0 0 0 0 0 0 0 0 0 0 0 0 0 0 0 0 0 0 0 0 0 0 0 0
-0 0 0 0 -0 0 0 0 0 0 0 0 0 0 0 0 0 0 0 0 0 0 0 0 0 0 0 0 0 0 0 0 0 0 0 0 0 0 0 0 0 0 0 0 0 0 0 0 0 0 0 0 0 0
-0 -0 0 0 -0 0 0 0 0 0 0 0 0 0 0 0 0 0 0 0 0 0 0 0 0 0 0 0 0 0 0 0 0 0 0 0 0 0 0 0 0 0 0 0 0 0 0 0 0 0 0 0 0 0
0 0 0 -0 0 0 0 0 0 0 0 0 0 0 0 0 0 0 0 0 0 0 0 0 0 0 0 0 0 0 0 0 0 0 0 0 0 0 0 0 0 0 0 0 0 0 0 0 0 0 0 0 0 0
0 0 0 0 0 0 0 0 0 0 0 0 0 0 0 0 0 0 0 0 0 0 0 0 0 0 0 0 0 0 0 0 0 0 0 0 0 0 0 0 0 0 0 0 0 0 0 0 0 0 0 0 0 0
0 0 0 0 0 0 0 0 0 0 0 0 0 0 0 0 0 0 0 0 0 0 0 0 0 0 0 0 0 0 0 0 0 0 0 0 0 0 0 0 0 0 0 0 0 0 0 0 0 0 0 0 0 0
0 0 0 0 0 0 0 0 0 0 0 0 0 0 0 0 0 0 0 0 0 0 0 0 0 0 0 0 0 0 0 0 0 0 0 0 0 0 0 0 0 0 0 0 0 0 0 0 0 0 0 0 0 0
0 0 0 0 0 0 0 0 0 0 0 0 0 0 0 0 0 0 0 0 0 0 0 0 0 0 0 0 0 0 0 0 0 0 0 0 0 0 0 0 0 0 0 0 0 0 0 0 0 0 0 0 0 0
0 0 0 0 0 0 0 0 0 0 0 0 0 0 0 0 0 0 0 0 0 0 0 0 0 0 0 0 0 0 0 0 0 0 0 0 0 0 0 0 0 0 0 0 0 0 0 0 0 0 0 0 0 0
0 0 0 0 0 0 0 0 0 0 0 0 0 0 0 0 0 0 0 0 0 0 0 0 0 0 0 0 0 0 0 0 0 0 0 0 0 0 0 0 0 0 0 0 0 0 0 0 0 0 0 0 0 0
0 0 0 0 0 0 0 0 0 0 0 0 0 0 0 0 0 0 0 0 0 0 0 0 0 0 0 0 0 0 0 0 0 0 0 0 0 0 0 0 0 0 0 0 0 0 0 0 0 0 0 0 0 0
0 0 0 0 0 0 0 0 0 0 0 0 0 0 0 0 0 0 0 0 0 0 0 0 0 0 0 0 0 0 0 0 0 0 0 0 0 0 0 0 0 0 0 0 0 0 0 0 0 0 0 0 0 0
0 0 0 0 0 0 0 0 0 0 0 0 0 0 0 0 0 0 0 0 0 0 0 0 0 0 0 0 0 0 0 0 0 0 0 0 0 0 0 0 0 0 0 0 0 0 0 0 0 0 0 0 0 0
0 0 0 0 0 0 0 0 0 0 0 0 0 0 0 0 0 0 0 0 0 0 0 0 0 0 0 0 0 0 0 0 0 0 0 0 0 0 0 0 0 0 0 0 0 0 0 0 0 0 0 0 0 0
0 0 0 0 0 0 0 0 0 0 0 0 0 0 0 0 0 0 0 0 0 0 0 0 0 0 0 0 0 0 0 0 0 0 0 0 0 0 0 0 0 0 0 0 0 0 0 0 0 0 0 0 0 0
0 0 0 0 0 0 0 0 0 0 0 0 0 0 0 0 0 0 0 0 0 0 0 0 0 0 0 0 0 0 0 0 0 0 0 0 0 0 0 0 0 0 0 0 0 0 0 0 0 0 0 0 0 0
0 0 0 0 0 0 0 0 0 0 0 0 0 0 0 0 0 0 0 0 0 0 0 0 0 0 0 0 0 0 0 0 0 0 0 0 0 0 0 0 0 0 0 0 0 0 0 0 0 0 0 0 0 0
0 0 0 0 0 0 0 0 0 0 0 0 0 0 0 0 0 0 0 0 0 0 0 0 0 0 0 0 0 0 0 0 0 0 0 0 0 0 0 0 0 0 0 0 0 0 0 0 0 0 0 0 0 0
0 0 0 0 0 0 0 0 0 0 0 0 0 0 0 0 0 0 0 0 0 0 0 0 0 0 0 0 0 0 0 0 0 0 0 0 0 0 0 0 0 0 0 0 0 0 0 0 0 0 0 0 0 0
0 0 0 0 0 0 0 0 0 0 0 0 0 0 0 0 0 0 0 0 0 0 0 0 0 0 0 0 0 0 0 0 0 0 0 0 0 0 0 0 0 0 0 0 0 0 0 0 0 0 0 0 0 0
0 0 0 0 0 0 0 0 0 0 0 0 0 0 0 0 0 0 0 0 0 0 0 0 0 0 0 0 0 0 0 0 0 0 0 0 0 0 0 0 0 0 0 0 0 0 0 0 0 0 0 0 0 0
0 0 0 0 0 0 0 0 0 0 0 0 0 0 0 0 0 0 0 0 0 0 0 0 0 0 0 0 0 0 0 0 0 0 0 0 0 0 0 0 0 0 0 0 0 0 0 0 0 0 0 0 0 0
0 0 0 0 0 0 0 0 0 0 0 0 0 0 0 0 0 0 0 0 0 0 0 0 0 0 0 -0 0 0 -0 0 0 0 0 0 0 0 0 0 0 0 0 0 0 0 0 0 0 0 0 0 0 0
Wind_Speed_500mb
55 59 65 56 57 57 61 60 57 53 51 52 54 49 51 41 30 25 17 15 18 12 11 21 18 15 16 17 9 16 8 1 3 6 7 6 5 9 4 4 12 15 16 8 4 5 17 26 10 17 9 11 24 28
55 55 58 65 54 59 58 60 59 58 62 55 52 59 47 49 36 33 28 22 22 10 6 25 25 23 26 24 28 43 6 13 14 4 3 6 5 3 6 7 1 6 12 12 20 12 2 58 9 30 20 16 22 32
58 54 56 67 59 58 57 58 57 55 58 54 54 53 52 49 48 50 41 33 31 12 13 23 27 30 42 29 26 22 12 18 19 13 8 4 5 7 9 10 3 8 7 5 6 8 11 46 33 17 25 27 29 32
56 59 59 61 65 58 62 55 60 54 55 57 55 50 53 53 53 63 60 47 40 10 4 11 17 30 30 42 34 35 11 33 29 19 7 5 5 12 6 4 7 9 16 11 2 1 8 24 33 32 31 31 32 32
54 57 63 66 68 62 57 56 57 54 54 57 56 55 66 52 51 60 64 54 53 29 10 7 12 17 27 40 44 28 25 34 21 8 5 5 8 8 2 4 7 17 14 10 8 26 26 20 28 33 37 34 30 35
43 45 45 54 64 61 62 54 60 57 52 54 56 49 50 60 51 50 30 69 61 53 9 1 6 7 28 32 42 42 33 27 21 15 6 10 9 8 7 7 13 33 24 29 12 22 37 37 39 37 31 39 37 39
35 36 38 44 47 54 51 56 60 60 55 53 52 53 53 55 54 46 14 15 56 64 17 3 5 11 25 29 31 29 38 16 15 12 8 14 10 23 5 12 8 21 32 31 36 39 35 50 41 44 33 26 27 29
40 41 45 46 46 49 50 52 57 57 53 51 41 45 55 56 49 62 63 32 39 57 16 7 3 5 21 11 8 14 16 17 12 12 11 6 13 6 7 26 22 45 47 48 63 56 59 55 52 50 41 41 37 35
49 54 54 54 53 56 54 57 60 63 59 50 38 50 60 47 16 38 55 44 56 28 12 9 12 9 25 10 12 13 13 4 11 5 7 17 7 11 25 34 34 51 56 68 64 54 56 61 65 63 58 46 36 39
47 52 44 46 52 60 58 62 71 59 55 50 47 16 11 31 39 35 13 16 15 18 13 4 14 7 18 9 6 11 12 7 8 10 22 9 7 65 46 45 49 58 56 58 52 51 54 56 60 56 51 45 39 38
54 39 40 42 49 44 48 72 56 57 59 41 14 10 38 55 14 9 9 8 6 7 12 12 14 8 17 6 6 9 5 5 8 8 12 7 7 43 63 64 83 85 82 84 78 70 60 58 51 41 43 41 44 44
53 2 19 43 38 38 81 64 64 65 45 38 30 43 46 12 7 7 6 3 4 8 10 9 14 14 20 12 6 11 6 4 9 11 6 5 14 50 37 54 64 68 77 78 76 72 68 62 58 52 46 41 41 43
45 48 42 7 46 48 59 57 58 35 39 52 15 14 13 8 8 13 12 4 3 6 19 15 6 15 12 11 5 5 9 9 14 7 8 11 26 46 21 29 39 47 53 57 59 56 51 45 42 40 38 36 35 34
32 41 43 41 53 53 61 60 57 49 15 8 8 9 7 6 7 7 10 8 9 13 42 34 10 7 9 5 6 9 6 7 3 5 14 6 17 27 28 28 32 33 34 35 36 35 34 32 30 28 28 28 28 26
35 40 33 34 31 32 33 31 32 31 11 7 7 7 6 3 5 9 12 13 11 22 45 14 10 8 3 6 6 7 8 9 12 11 5 20 28 28 23 18 18 21 25 26 25 23 23 23 22 23 24 23 20 18
23 23 38 26 18 15 15 16 21 19 7 7 5 5 6 6 7 2 9 12 18 40 20 8 6 7 7 6 8 10 12 12 5 3 20 29 25 24 22 18 14 12 9 12 15 17 18 19 19 21 23 22 20 18
28 34 20 18 15 10 8 11 6 9 8 7 4 12 10 11 8 7 7 9 37 27 5 4 11 12 5 6 7 4 5 3 8 21 24 27 29 25 20 17 13 9 5 3 6 12 16 20 21 21 20 19 18 15
20 17 12 17 7 4 12 8 7 9 9 10 4 6 11 13 10 11 11 18 9 8 9 5 5 2 3 5 5 5 10 16 11 17 24 25 23 22 17 13 7 7 11 14 15 17 18 20 21 21 19 16 13 10
9 4 12 13 3 9 7 6 8 7 7 8 10 13 13 15 22 14 13 14 14 15 17 6 7 5 5 7 6 9 20 22 22 28 23 22 18 13 11 10 10 11 13 18 20 20 19 17 14 14 13 11 9 7
5 12 9 10 14 7 7 9 8 10 5 6 7 11 11 11 12 22 20 16 16 13 17 11 7 7 7 8 11 15 17 18 20 18 9 20 14 8 6 6 6 10 12 16 20 18 17 15 13 11 9 8 7 5
7 6 4 6 7 11 11 8 11 10 9 10 11 7 8 11 14 16 20 22 23 16 7 13 12 14 12 9 9 12 13 17 16 14 15 16 12 7 5 6 9 10 11 14 14 15 12 10 8 8 7 5 4 2
8 6 7 9 8 9 12 14 11 8 7 8 8 9 12 5 10 14 12 30 14 14 14 18 23 19 13 10 11 14 15 13 13 12 9 8 3 3 6 8 8 7 8 9 9 8 7 5 6 5 3 2 2 1
19 17 9 9 8 10 6 8 7 9 7 3 5 7 6 6 8 11 13 13 11 24 25 23 22 14 11 13 14 14 14 14 12 10 9 9 7 8 9 7 6 5 5 6 6 5 3 1 1 2 3 3 3 4
17 11 15 12 19 4 5 9 8 7 8 6 5 6 6 6 7 12 8 8 18 29 29 26 23 14 13 16 19 17 16 15 15 13 12 12 10 10 10 9 9 8 7 7 5 3 3 5 6 7 7 6 7 8
10 22 16 14 18 11 10 7 9 7 7 8 6 6 5 8 6 8 5 14 29 34 33 26 25 26 23 21 22 22 19 17 19 20 19 17 16 15 13 11 9 8 7 6 7 7 8 9 9 9 9 10 12 14
17 20 13 11 12 9 8 7 9 9 5 7 8 7 6 6 9 8 3 23 24 30 31 28 26 26 28 26 24 22 20 16 16 15 17 16 14 13 12 10 8 9 10 11 11 11 12 13 13 14 15 16 19 21
13 10 15 18 10 8 7 12 13 10 10 10 7 9 6 10 9 5 12 25 24 25 21 20 22 25 27 27 22 18 16 15 15 16 15 15 16 17 16 15 15 15 14 14 15 15 15 16 17 19 21 22 24 27
13 22 11 24 15 21 7 7 10 10 7 14 3 11 7 7 1 11 12 18 18 18 22 25 29 31 32 31 29 23 17 15 12 11 11 11 10 15 21 18 18 18 18 18 18 18 20 21 22 23 26 29 29 29
14 33 12 10 11 17 16 10 7 10 13 6 4 6 6 11 17 24 27 29 30 28 27 26 25 21 20 22 23 25 24 20 14 14 14 14 16 16 20 20 20 21 22 21 22 24 25 26 28 32 35 37 38 40
19 31 9 12 10 10 16 15 15 23 32 34 38 53 49 44 42 37 36 34 35 36 32 28 24 24 29 29 26 23 23 22 26 28 32 32 34 33 33 32 32 31 32 33 33 33 33 35 38 41 45 49 51 54
22 17 11 16 10 10 18 30 38 43 46 47 43 45 39 31 52 52 39 32 29 26 24 27 27 30 33 36 41 39 33 27 34 35 37 42 43 43 42 42 42 43 45 46 46 47 48 49 49 51 51 52 51 53
21 19 8 7 4 9 10 10 13 16 14 12 13 18 13 8 8 9 48 54 40 35 33 32 36 43 43 41 39 37 40 42 44 47 53 52 51 49 48 47 47 51 52 53 54 55 56 57 58 57 58 59 59 60
9 16 15 9 5 5 11 6 4 6 5 3 4 7 8 6 6 4 10 38 60 35 35 36 45 46 40 38 39 34 37 42 43 41 41 40 40 40 39 40 46 50 51 53 53 54 55 56 57 58 58 59 60 60
Wind_Direction_500mb
270 268 261 271 263 251 247 249 239 242 239 235 235 233 225 216 231 222 226 202 195 187 196 214 203 163 150 159 147 145 104 329 119 172 152 172 160 204 131 136 176 158 164 190 119 199 266 156 112 175 199 136 162 179
275 268 261 256 269 252 244 250 241 239 234 234 231 233 219 216 227 227 213 207 194 199 210 210 218 213 215 211 168 167 171 159 167 116 121 108 139 167 145 217 1 229 192 180 193 202 106 173 154 186 154 164 194 209
268 271 266 250 259 257 247 243 235 235 234 232 231 230 230 225 223 226 224 209 188 222 256 244 238 228 220 211 203 164 203 183 185 161 146 134 178 140 167 233 120 259 172 198 126 183 190 193 211 194 214 240 252 253
267 263 258 256 250 255 243 241 233 232 235 232 229 227 229 222 218 216 213 214 209 155 169 252 244 225 224 213 206 208 203 181 167 161 127 137 164 193 188 157 185 199 140 156 283 23 175 234 217 227 244 257 266 270
267 268 259 252 242 249 246 236 235 230 232 233 233 235 232 217 213 217 219 220 224 200 192 276 271 238 214 213 218 213 201 185 159 136 110 180 144 127 1 52 253 182 178 165 204 197 183 200 235 240 236 246 262 269
280 275 265 240 230 241 235 236 228 234 230 236 231 231 228 211 203 200 202 220 223 208 178 169 263 226 199 200 210 213 205 193 183 154 171 173 154 128 131 198 232 207 166 206 206 216 219 255 263 260 245 257 270 276
285 284 266 244 240 240 231 231 229 230 225 229 223 222 226 214 204 195 183 196 202 206 190 195 288 197 189 180 188 186 190 189 194 165 161 138 179 172 119 229 139 210 225 227 250 249 252 255 254 262 261 266 267 266
283 281 277 255 243 238 238 223 225 220 219 218 228 224 207 214 214 211 221 227 180 184 185 186 172 146 168 151 133 164 168 174 198 181 137 134 132 140 245 247 251 250 256 259 258 246 251 259 266 263 261 273 272 266
291 291 279 250 234 237 237 222 217 214 211 213 224 193 194 203 189 199 202 192 189 185 180 154 147 187 168 128 135 150 159 135 189 189 178 152 169 214 227 226 227 246 237 253 265 261 253 247 257 263 264 267 255 266
295 293 265 239 223 228 235 232 202 199 199 205 207 183 147 147 139 121 123 180 176 183 167 119 134 151 158 131 134 136 173 183 185 213 143 201 227 239 237 237 245 252 256 259 244 245 245 244 256 264 262 268 258 262
307 291 236 213 224 233 215 199 192 189 185 178 132 109 137 136 106 125 163 199 129 145 169 134 162 129 190 142 162 194 170 163 172 224 174 182 256 246 240 239 250 254 257 258 261 270 270 272 275 270 268 265 259 255
342 339 214 209 220 233 179 172 177 174 186 158 137 131 135 137 136 135 167 111 127 187 182 138 182 148 153 161 115 162 159 138 217 143 138 208 248 251 246 236 252 257 259 266 271 273 272 270 273 272 265 260 250 246
35 58 62 249 195 157 162 167 184 194 149 128 117 145 134 146 169 167 155 279 174 183 171 161 129 136 133 164 114 146 159 197 117 183 213 228 262 268 271 262 262 261 265 267 269 269 267 263 258 255 255 249 230 219
37 49 61 58 71 119 156 171 161 148 125 105 137 126 156 167 188 170 175 185 205 180 162 149 124 139 140 116 137 139 189 97 162 190 228 246 347 314 303 287 279 273 270 267 264 264 260 253 245 238 227 216 213 210
67 63 60 52 58 79 93 104 131 158 78 90 111 164 178 182 83 121 133 134 152 158 152 109 81 115 165 156 175 113 159 201 199 221 235 344 340 333 328 319 299 285 281 270 261 251 241 231 219 209 198 195 194 198
68 74 55 53 72 89 119 132 132 142 117 153 98 103 74 57 331 104 145 128 144 157 143 122 134 141 201 174 169 190 164 206 254 351 340 339 347 355 356 353 353 338 302 259 232 217 207 202 196 189 184 183 184 181
65 66 43 32 46 73 109 119 84 59 63 55 39 75 77 73 128 114 117 130 153 161 151 173 180 204 119 168 182 40 178 273 309 340 341 340 341 351 356 3 9 14 46 119 184 182 180 176 173 171 173 168 166 170
79 68 35 16 11 112 107 84 84 68 70 38 65 26 58 58 87 96 107 137 147 128 127 160 107 80 23 133 71 23 22 341 347 355 354 353 351 356 4 10 33 90 123 137 146 151 155 158 159 156 158 161 169 179
85 346 343 347 55 123 102 85 84 96 80 81 75 82 80 86 68 69 101 113 106 107 116 78 79 43 58 38 12 359 348 359 339 339 341 353 358 17 39 54 78 100 118 128 132 138 143 152 157 155 160 162 173 179
30 13 25 44 133 92 89 63 87 93 93 86 89 78 84 83 85 56 65 73 77 48 40 39 46 35 5 341 335 325 324 334 343 354 5 3 2 12 41 74 108 125 139 138 135 134 138 147 151 150 169 186 193 201
268 335 55 119 93 65 77 62 65 72 89 93 97 66 71 71 50 44 34 28 58 36 55 43 7 359 350 343 342 340 344 340 344 333 320 320 341 355 38 99 118 124 132 129 128 136 144 151 161 168 179 181 180 191
193 178 112 100 78 66 70 48 76 81 76 86 68 56 46 42 38 29 40 50 56 27 2 347 349 349 6 22 13 9 4 360 355 344 341 355 5 75 108 116 115 124 132 126 127 132 137 146 150 155 173 194 215 238
137 138 88 61 86 55 31 48 65 38 77 37 69 60 31 47 52 36 72 62 72 4 359 359 0 10 43 38 28 23 25 24 25 28 33 62 68 96 109 109 115 124 111 104 99 101 105 168 262 249 259 254 256 264
111 64 38 43 33 42 34 39 46 60 60 43 53 79 40 30 47 62 75 62 3 8 21 24 32 57 56 50 51 52 50 50 55 61 72 75 81 86 86 85 82 77 66 64 61 30 324 297 291 280 275 270 275 290
84 15 22 11 19 22 33 23 13 47 63 26 78 57 16 20 70 57 64 5 5 19 27 40 50 58 64 64 60 57 56 59 68 69 69 69 68 70 70 68 62 50 37 15 354 337 324 308 295 288 284 285 290 299
67 16 37 354 7 33 354 47 30 18 26 62 39 338 33 66 63 55 29 352 358 14 21 32 45 58 56 54 56 59 58 65 67 68 67 62 60 58 55 43 27 18 4 352 339 324 311 300 293 285 282 287 293 298
48 352 9 21 354 338 47 47 42 49 53 28 352 8 40 63 60 10 4 3 8 21 34 46 51 51 50 49 48 42 40 49 60 62 61 58 54 46 37 28 21 6 354 343 336 330 324 316 306 297 292 288 291 294
54 26 18 342 34 34 48 45 35 26 2 347 318 36 71 51 64 352 4 27 43 58 66 71 72 68 60 54 49 49 60 56 43 37 47 43 29 18 10 358 347 338 330 324 321 317 314 311 307 302 296 293 292 288
27 352 359 27 47 48 42 27 19 358 337 1 52 69 83 63 68 72 72 77 80 86 86 81 71 59 53 44 41 42 42 41 38 32 17 358 352 339 340 337 330 322 316 312 311 310 309 309 305 296 294 295 294 292
357 2 25 46 48 39 18 36 42 56 67 83 99 103 93 78 79 85 81 75 68 63 61 58 51 40 32 24 20 18 1 353 359 358 352 340 329 326 324 320 317 314 310 308 306 301 295 292 289 285 286 288 290 291
352 4 61 51 71 43 63 73 79 85 92 97 103 101 105 97 65 57 56 52 49 47 41 32 23 15 6 358 353 343 336 329 318 318 316 316 313 308 306 305 303 301 300 301 301 301 300 299 299 298 296 294 293 292
19 31 66 81 63 63 49 68 79 101 93 84 76 96 91 89 76 49 33 32 27 26 22 12 3 351 342 335 330 321 312 307 306 307 310 310 308 307 305 304 303 299 299 300 301 301 301 301 300 299 298 296 296 296
40 44 55 68 56 38 20 31 100 103 111 106 64 76 79 79 95 184 337 8 7 357 353 347 343 344 342 339 333 325 315 315 314 314 311 311 312 313 312 310 299 301 303 302 302 301 300 300 298 298 297 297 297 297
Wind_Speed_850mb
55 59 65 56 57 57 61 60 57 53 51 52 54 49 51 41 30 25 17 15 18 12 11 21 18 15 16 17 9 16 8 1 3 6 7 6 5 9 4 4 12 15 16 8 4 5 17 26 10 17 9 11 24 28
55 55 58 65 54 59 58 60 59 58 62 55 52 59 47 49 36 33 28 22 22 10 6 25 25 23 26 24 28 43 6 13 14 4 3 6 5 3 6 7 1 6 12 12 20 12 2 58 9 30 20 16 22 32
58 54 56 67 59 58 57 58 57 55 58 54 54 53 52 49 48 50 41 33 31 12 13 23 27 30 42 29 26 22 12 18 19 13 8 4 5 7 9 10 3 8 7 5 6 8 11 46 33 17 25 27 29 32
56 59 59 61 65 58 62 55 60 54 55 57 55 50 53 53 53 63 60 47 40 10 4 11 17 30 30 42 34 35 11 33 29 19 7 5 5 12 6 4 7 9 16 11 2 1 8 24 33 32 31 31 32 32
54 57 63 66 68 62 57 56 57 54 54 57 56 55 66 52 51 60 64 54 53 29 10 7 12 17 27 40 44 28 25 34 21 8 5 5 8 8 2 4 7 17 14 10 8 26 26 20 28 33 37 34 30 35
43 45 45 54 64 61 62 54 60 57 52 54 56 49 50 60 51 50 30 69 61 53 9 1 6 7 28 32 42 42 33 27 21 15 6 10 9 8 7 7 13 33 24 29 12 22 37 37 39 37 31 39 37 39
35 36 38 44 47 54 51 56 60 60 55 53 52 53 53 55 54 46 14 15 56 64 17 3 5 11 25 29 31 29 38 16 15 12 8 14 10 23 5 12 8 21 32 31 36 39 35 50 41 44 33 26 27 29
40 41 45 46 46 49 50 52 57 57 53 51 41 45 55 56 49 62 63 32 39 57 16 7 3 5 21 11 8 14 16 17 12 12 11 6 13 6 7 26 22 45 47 48 63 56 59 55 52 50 41 41 37 35
49 54 54 54 53 56 54 57 60 63 59 50 38 50 60 47 16 38 55 44 56 28 12 9 12 9 25 10 12 13 13 4 11 5 7 17 7 11 25 34 34 51 56 68 64 54 56 61 65 63 58 46 36 39
47 52 44 46 52 60 58 62 71 59 55 50 47 16 11 31 39 35 13 16 15 18 13 4 14 7 18 9 6 11 12 7 8 10 22 9 7 65 46 45 49 58 56 58 52 51 54 56 60 56 51 45 39 38
54 39 40 42 49 44 48 72 56 57 59 41 14 10 38 55 14 9 9 8 6 7 12 12 14 8 17 6 6 9 5 5 8 8 12 7 7 43 63 64 83 85 82 84 78 70 60 58 51 41 43 41 44 44
53 2 19 43 38 38 81 64 64 65 45 38 30 43 46 12 7 7 6 3 4 8 10 9 14 14 20 12 6 11 6 4 9 11 6 5 14 50 37 54 64 68 77 78 76 72 68 62 58 52 46 41 41 43
45 48 42 7 46 48 59 57 58 35 39 52 15 14 13 8 8 13 12 4 3 6 19 15 6 15 12 11 5 5 9 9 14 7 8 11 26 46 21 29 39 47 53 57 59 56 51 45 42 40 38 36 35 34
32 41 43 41 53 53 61 60 57 49 15 8 8 9 7 6 7 7 10 8 9 13 42 34 10 7 9 5 6 9 6 7 3 5 14 6 17 27 28 28 32 33 34 35 36 35 34 32 30 28 28 28 28 26
35 40 33 34 31 32 33 31 32 31 11 7 7 7 6 3 5 9 12 13 11 22 45 14 10 8 3 6 6 7 8 9 12 11 5 20 28 28 23 18 18 21 25 26 25 23 23 23 22 23 24 23 20 18
23 23 38 26 18 15 15 16 21 19 7 7 5 5 6 6 7 2 9 12 18 40 20 8 6 7 7 6 8 10 12 12 5 3 20 29 25 24 22 18 14 12 9 12 15 17 18 19 19 21 23 22 20 18
28 34 20 18 15 10 8 11 6 9 8 7 4 12 10 11 8 7 7 9 37 27 5 4 11 12 5 6 7 4 5 3 8 21 24 27 29 25 20 17 13 9 5 3 6 12 16 20 21 21 20 19 18 15
20 17 12 17 7 4 12 8 7 9 9 10 4 6 11 13 10 11 11 18 9 8 9 5 5 2 3 5 5 5 10 16 11 17 24 25 23 22 17 13 7 7 11 14 15 17 18 20 21 21 19 16 13 10
9 4 12 13 3 9 7 6 8 7 7 8 10 13 13 15 22 14 13 14 14 15 17 6 7 5 5 7 6 9 20 22 22 28 23 22 18 13 11 10 10 11 13 18 20 20 19 17 14 14 13 11 9 7
5 12 9 10 14 7 7 9 8 10 5 6 7 11 11 11 12 22 20 16 16 13 17 11 7 7 7 8 11 15 17 18 20 18 9 20 14 8 6 6 6 10 12 16 20 18 17 15 13 11 9 8 7 5
7 6 4 6 7 11 11 8 11 10 9 10 11 7 8 11 14 16 20 22 23 16 7 13 12 14 12 9 9 12 13 17 16 14 15 16 12 7 5 6 9 10 11 14 14 15 12 10 8 8 7 5 4 2
8 6 7 9 8 9 12 14 11 8 7 8 8 9 12 5 10 14 12 30 14 14 14 18 23 19 13 10 11 14 15 13 13 12 9 8 3 3 6 8 8 7 8 9 9 8 7 5 6 5 3 2 2 1
19 17 9 9 8 10 6 8 7 9 7 3 5 7 6 6 8 11 13 13 11 24 25 23 22 14 11 13 14 14 14 14 12 10 9 9 7 8 9 7 6 5 5 6 6 5 3 1 1 2 3 3 3 4
17 11 15 12 19 4 5 9 8 7 8 6 5 6 6 6 7 12 8 8 18 29 29 26 23 14 13 16 19 17 16 15 15 13 12 12 10 10 10 9 9 8 7 7 5 3 3 5 6 7 7 6 7 8
10 22 16 14 18 11 10 7 9 7 7 8 6 6 5 8 6 8 5 14 29 34 33 26 25 26 23 21 22 22 19 17 19 20 19 17 16 15 13 11 9 8 7 6 7 7 8 9 9 9 9 10 12 14
17 20 13 11 12 9 8 7 9 9 5 7 8 7 6 6 9 8 3 23 24 30 31 28 26 26 28 26 24 22 20 16 16 15 17 16 14 13 12 10 8 9 10 11 11 11 12 13 13 14 15 16 19 21
13 10 15 18 10 8 7 12 13 10 10 10 7 9 6 10 9 5 12 25 24 25 21 20 22 25 27 27 22 18 16 15 15 16 15 15 16 17 16 15 15 15 14 14 15 15 15 16 17 19 21 22 24 27
13 22 11 24 15 21 7 7 10 10 7 14 3 11 7 7 1 11 12 18 18 18 22 25 29 31 32 31 29 23 17 15 12 11 11 11 10 15 21 18 18 18 18 18 18 18 20 21 22 23 26 29 29 29
14 33 12 10 11 17 16 10 7 10 13 6 4 6 6 11 17 24 27 29 30 28 27 26 25 21 20 22 23 25 24 20 14 14 14 14 16 16 20 20 20 21 22 21 22 24 25 26 28 32 35 37 38 40
19 31 9 12 10 10 16 15 15 23 32 34 38 53 49 44 42 37 36 34 35 36 32 28 24 24 29 29 26 23 23 22 26 28 32 32 34 33 33 32 32 31 32 33 33 33 33 35 38 41 45 49 51 54
22 17 11 16 10 10 18 30 38 43 46 47 43 45 39 31 52 52 39 32 29 26 24 27 27 30 33 36 41 39 33 27 34 35 37 42 43 43 42 42 42 43 45 46 46 47 48 49 49 51 51 52 51 53
21 19 8 7 4 9 10 10 13 16 14 12 13 18 13 8 8 9 48 54 40 35 33 32 36 43 43 41 39 37 40 42 44 47 53 52 51 49 48 47 47 51 52 53 54 55 56 57 58 57 58 59 59 60
9 16 15 9 5 5 11 6 4 6 5 3 4 7 8 6 6 4 10 38 60 35 35 36 45 46 40 38 39 34 37 42 43 41 41 40 40 40 39 40 46 50 51 53 53 54 55 56 57 58 58 59 60 60
Wind_Direction_850mb
270 268 261 271 263 251 247 249 239 242 239 235 235 233 225 216 231 222 226 202 195 187 196 214 203 163 150 159 147 145 104 329 119 172 152 172 160 204 131 136 176 158 164 190 119 199 266 156 112 175 199 136 162 179
275 268 261 256 269 252 244 250 241 239 234 234 231 233 219 216 227 227 213 207 194 199 210 210 218 213 215 211 168 167 171 159 167 116 121 108 139 167 145 217 1 229 192 180 193 202 106 173 154 186 154 164 194 209
268 271 266 250 259 257 247 243 235 235 234 232 231 230 230 225 223 226 224 209 188 222 256 244 238 228 220 211 203 164 203 183 185 161 146 134 178 140 167 233 120 259 172 198 126 183 190 193 211 194 214 240 252 253
267 263 258 256 250 255 243 241 233 232 235 232 229 227 229 222 218 216 213 214 209 155 169 252 244 225 224 213 206 208 203 181 167 161 127 137 164 193 188 157 185 199 140 156 283 23 175 234 217 227 244 257 266 270
267 268 259 252 242 249 246 236 235 230 232 233 233 235 232 217 213 217 219 220 224 200 192 276 271 238 214 213 218 213 201 185 159 136 110 180 144 127 1 52 253 182 178 165 204 197 183 200 235 240 236 246 262 269
280 275 265 240 230 241 235 236 228 234 230 236 231 231 228 211 203 200 202 220 223 208 178 169 263 226 199 200 210 213 205 193 183 154 171 173 154 128 131 198 232 207 166 206 206 216 219 255 263 260 245 257 270 276
285 284 266 244 240 240 231 231 229 230 225 229 223 222 226 214 204 195 183 196 202 206 190 195 288 197 189 180 188 186 190 189 194 165 161 138 179 172 119 229 139 210 225 227 250 249 252 255 254 262 261 266 267 266
283 281 277 255 243 238 238 223 225 220 219 218 228 224 207 214 214 211 221 227 180 184 185 186 172 146 168 151 133 164 168 174 198 181 137 134 132 140 245 247 251 250 256 259 258 246 251 259 266 263 261 273 272 266
291 291 279 250 234 237 237 222 217 214 211 213 224 193 194 203 189 199 202 192 189 185 180 154 147 187 168 128 135 150 159 135 189 189 178 152 169 214 227 226 227 246 237 253 265 261 253 247 257 263 264 267 255 266
295 293 265 239 223 228 235 232 202 199 199 205 207 183 147 147 139 121 123 180 176 183 167 119 134 151 158 131 134 136 173 183 185 213 143 201 227 239 237 237 245 252 256 259 244 245 245 244 256 264 262 268 258 262
307 291 236 213 224 233 215 199 192 189 185 178 132 109 137 136 106 125 163 199 129 145 169 134 162 129 190 142 162 194 170 163 172 224 174 182 256 246 240 239 250 254 257 258 261 270 270 272 275 270 268 265 259 255
342 339 214 209 220 233 179 172 177 174 186 158 137 131 135 137 136 135 167 111 127 187 182 138 182 148 153 161 115 162 159 138 217 143 138 208 248 251 246 236 252 257 259 266 271 273 272 270 273 272 265 260 250 246
35 58 62 249 195 157 162 167 184 194 149 128 117 145 134 146 169 167 155 279 174 183 171 161 129 136 133 164 114 146 159 197 117 183 213 228 262 268 271 262 262 261 265 267 269 269 267 263 258 255 255 249 230 219
37 49 61 58 71 119 156 171 161 148 125 105 137 126 156 167 188 170 175 185 205 180 162 149 124 139 140 116 137 139 189 97 162 190 228 246 347 314 303 287 279 273 270 267 264 264 260 253 245 238 227 216 213 210
67 63 60 52 58 79 93 104 131 158 78 90 111 164 178 182 83 121 133 134 152 158 152 109 81 115 165 156 175 113 159 201 199 221 235 344 340 333 328 319 299 285 281 270 261 251 241 231 219 209 198 195 194 198
68 74 55 53 72 89 119 132 132 142 117 153 98 103 74 57 331 104 145 128 144 157 143 122 134 141 201 174 169 190 164 206 254 351 340 339 347 355 356 353 353 338 302 259 232 217 207 202 196 189 184 183 184 181
65 66 43 32 46 73 109 119 84 59 63 55 39 75 77 73 128 114 117 130 153 161 151 173 180 204 119 168 182 40 178 273 309 340 341 340 341 351 356 3 9 14 46 119 184 182 180 176 173 171 173 168 166 170
79 68 35 16 11 112 107 84 84 68 70 38 65 26 58 58 87 96 107 137 147 128 127 160 107 80 23 133 71 23 22 341 347 355 354 353 351 356 4 10 33 90 123 137 146 151 155 158 159 156 158 161 169 179
85 346 343 347 55 123 102 85 84 96 80 81 75 82 80 86 68 69 101 113 106 107 116 78 79 43 58 38 12 359 348 359 339 339 341 353 358 17 39 54 78 100 118 128 132 138 143 152 157 155 160 162 173 179
30 13 25 44 133 92 89 63 87 93 93 86 89 78 84 83 85 56 65 73 77 48 40 39 46 35 5 341 335 325 324 334 343 354 5 3 2 12 41 74 108 125 139 138 135 134 138 147 151 150 169 186 193 201
268 335 55 119 93 65 77 62 65 72 89 93 97 66 71 71 50 44 34 28 58 36 55 43 7 359 350 343 342 340 344 340 344 333 320 320 341 355 38 99 118 124 132 129 128 136 144 151 161 168 179 181 180 191
193 178 112 100 78 66 70 48 76 81 76 86 68 56 46 42 38 29 40 50 56 27 2 347 349 349 6 22 13 9 4 360 355 344 341 355 5 75 108 116 115 124 132 126 127 132 137 146 150 155 173 194 215 238
137 138 88 61 86 55 31 48 65 38 77 37 69 60 31 47 52 36 72 62 72 4 359 359 0 10 43 38 28 23 25 24 25 28 33 62 68 96 109 109 115 124 111 104 99 101 105 168 262 249 259 254 256 264
111 64 38 43 33 42 34 39 46 60 60 43 53 79 40 30 47 62 75 62 3 8 21 24 32 57 56 50 51 52 50 50 55 61 72 75 81 86 86 85 82 77 66 64 61 30 324 297 291 280 275 270 275 290
84 15 22 11 19 22 33 23 13 47 63 26 78 57 16 20 70 57 64 5 5 19 27 40 50 58 64 64 60 57 56 59 68 69 69 69 68 70 70 68 62 50 37 15 354 337 324 308 295 288 284 285 290 299
67 16 37 354 7 33 354 47 30 18 26 62 39 338 33 66 63 55 29 352 358 14 21 32 45 58 56 54 56 59 58 65 67 68 67 62 60 58 55 43 27 18 4 352 339 324 311 300 293 285 282 287 293 298
48 352 9 21 354 338 47 47 42 49 53 28 352 8 40 63 60 10 4 3 8 21 34 46 51 51 50 49 48 42 40 49 60 62 61 58 54 46 37 28 21 6 354 343 336 330 324 316 306 297 292 288 291 294
54 26 18 342 34 34 48 45 35 26 2 347 318 36 71 51 64 352 4 27 43 58 66 71 72 68 60 54 49 49 60 56 43 37 47 43 29 18 10 358 347 338 330 324 321 317 314 311 307 302 296 293 292 288
27 352 359 27 47 48 42 27 19 358 337 1 52 69 83 63 68 72 72 77 80 86 86 81 71 59 53 44 41 42 42 41 38 32 17 358 352 339 340 337 330 322 316 312 311 310 309 309 305 296 294 295 294 292
357 2 25 46 48 39 18 36 42 56 67 83 99 103 93 78 79 85 81 75 68 63 61 58 51 40 32 24 20 18 1 353 359 358 352 340 329 326 324 320 317 314 310 308 306 301 295 292 289 285 286 288 290 291
352 4 61 51 71 43 63 73 79 85 92 97 103 101 105 97 65 57 56 52 49 47 41 32 23 15 6 358 353 343 336 329 318 318 316 316 313 308 306 305 303 301 300 301 301 301 300 299 299 298 296 294 293 292
19 31 66 81 63 63 49 68 79 101 93 84 76 96 91 89 76 49 33 32 27 26 22 12 3 351 342 335 330 321 312 307 306 307 310 310 308 307 305 304 303 299 299 300 301 301 301 301 300 299 298 296 296 296
40 44 55 68 56 38 20 31 100 103 111 106 64 76 79 79 95 184 337 8 7 357 353 347 343 344 342 339 333 325 315 315 314 314 311 311 312 313 312 310 299 301 303 302 302 301 300 300 298 298 297 297 297 297